Location: Hauppauge
(40.8260°N, 73.2030°W)
Time: 22:04:07
(UTC-04:00)

Daily predictions for brighter satellites

Satellite Brightness Start Highest point End
(mag) Time Altitude Azimuth Time Altitude Azimuth Time Altitude Azimuth
FENGYUN 3A 4.5 18:29:24 10° SE 18:33:57 29° ENE 18:38:31 10° N
MOS 1 4.4 18:30:43 10° SE 18:36:12 54° ENE 18:41:43 10° N
Meteor 2-14 Rocket 4.5 18:30:46 10° S 18:36:46 61° E 18:42:45 10° NNE
GP-B 3.6 18:32:35 10° NNE 18:36:46 39° E 18:40:55 10° SSE
CZ-4 R/B 1.8 18:36:08 10° S 18:40:21 76° WSW 18:44:33 10° NNW
Cosmos 1703 4.3 18:37:04 10° NNE 18:40:22 25° ENE 18:43:38 10° SE
CZ-2C R/B 3.9 18:37:19 10° N 18:41:53 77° WNW 18:46:20 10° SSW
Abrixas rocket 2.6 18:39:12 10° WSW 18:42:26 59° NNW 18:45:43 10° NE
Landsat 4 4.2 18:39:37 10° N 18:43:19 64° WNW 18:47:00 10° SSW
Cosmos 2219 Rocket 4.1 18:44:15 10° NE 18:45:04 10° NE 18:45:54 10° NE
Cosmos-2242 3.1 18:44:28 10° S 18:48:43 80° W 18:53:00 10° N
Cosmos 1624 Rocket 4.0 18:44:00 10° NNW 18:49:14 72° ENE 18:54:27 10° SSE
Cosmos 1400 Rocket 3.3 18:45:35 10° N 18:49:24 39° ENE 18:53:09 10° SE
Cosmos 1371 Rocket 4.1 18:46:08 10° NNW 18:51:32 89° WSW 18:56:53 10° SSE
Thor Agena Rocket 4.4 18:47:48 10° NE 18:52:04 26° E 18:56:17 10° SSE
BREEZE-M DEB (TANK) 4.3 18:37:34 10° WSW 18:53:48 68° NNW 18:58:14 11° ENE
SKYMED 2 3.5 18:50:37 10° NNE 18:54:58 69° E 18:59:17 10° S
SL-16 R/B 2.3 18:49:27 10° NNW 18:55:10 89° WSW 19:00:50 10° SSE
Tiangong 1 2.0 18:53:46 10° W 18:56:18 36° SSW 18:58:47 10° SE
ERS-2 3.4 18:53:48 10° S 18:57:20 45° W 19:00:55 10° NNW
Meteor 1-28 Rocket 4.1 18:53:58 10° N 18:57:40 52° WNW 19:01:20 10° SSW
Iridium 4 Rocket 4.5 18:56:29 10° SE 19:01:05 29° E 19:05:57 10° NNE
Cosmos 1743 Rocket 3.5 18:57:21 10° N 19:01:42 62° E 19:06:03 10° SSE
Cosmos 1908 4.2 18:59:47 10° SSE 19:03:06 27° E 19:06:25 10° NNE
GRACE-2 4.3 19:02:28 10° SSE 19:04:50 33° E 19:07:12 10° NNE
Cosmos 2151 3.1 19:01:04 10° N 19:05:15 51° E 19:09:23 10° SSE
GRACE-1 4.2 19:04:13 10° SSE 19:06:37 37° E 19:09:04 10° NNE
Cosmos 1842 Rocket 3.5 19:04:11 10° S 19:08:36 66° E 19:13:03 10° NNE
Delta 2 Rocket 4.4 19:05:54 10° SW 19:08:52 24° SSE 19:10:44 15° ESE
H-2A R/B 3.7 19:07:54 10° SE 19:11:10 27° ENE 19:14:29 10° NNE
Resurs 01 Rocket 3.6 19:12:24 12° NE 19:12:24 12° NE 19:13:35 10° NE
Cosmos 2366 rocket 4.1 19:07:22 10° S 19:13:37 85° W 19:19:50 10° N
Cosmos 44 Rocket 4.5 19:16:28 10° SSE 19:19:51 20° ESE 19:19:53 20° ESE
Cosmos 2221 3.0 19:16:31 10° SSE 19:20:29 37° E 19:24:30 10° NNE
ISS -1.5 19:20:58 10° W 19:23:37 22° SW 19:26:14 10° S
Cosmos 1500 Rocket 3.4 19:19:45 10° N 19:24:08 83° E 19:28:27 10° S
FREGAT/IRIS 3.0 19:23:45 32° ESE 19:24:23 37° ENE 19:27:12 10° N
SPOT 3 Rocket 3.9 19:20:34 10° S 19:25:43 68° WSW 19:30:56 10° NNW
Cosmos 158 Rocket 4.3 19:23:34 10° S 19:28:10 38° ESE 19:32:55 10° NE
Cosmos 1315 Rocket 2.8 19:26:18 10° N 19:30:19 59° ENE 19:34:21 10° SSE
Cosmos 921 Rocket 3.1 19:27:23 10° N 19:31:47 53° ENE 19:34:56 17° SE
COSMOS 2428 3.4 19:27:02 10° N 19:32:12 34° ENE 19:34:16 26° E
Cosmos 2333 Rocket 3.5 19:31:18 10° N 19:35:34 21° NE 19:36:00 21° ENE
HJ-1C 4.3 19:36:22 32° NE 19:36:22 32° NE 19:38:50 10° N
NOSS 3 (A) 4.4 19:33:12 10° SW 19:35:56 82° NW 19:36:59 36° NNE
Cosmos 1833 4.2 19:33:00 10° SSW 19:38:43 84° WNW 19:44:24 10° NNE
Cosmos 2360 Rocket 2.1 19:33:50 10° NNW 19:39:32 85° ENE 19:45:12 10° SSE
Cosmos 2058 3.4 19:35:49 10° NNW 19:39:58 63° W 19:44:04 10° S
Cosmos 2098 Rocket 3.4 19:36:40 10° SSE 19:40:31 45° E 19:45:25 10° NNE
FengYun 1-2 T 4.1 19:35:45 10° SSE 19:41:11 67° ENE 19:46:38 10° N
Meteor 2-1 Rocket 4.4 19:35:55 10° SSW 19:41:39 78° W 19:47:34 10° N
COSMO-SKYMED 1 4.3 19:39:00 10° N 19:42:57 34° WNW 19:46:51 10° SW
Cosmos 2219 3.7 19:38:38 10° S 19:43:50 36° ESE 19:45:35 30° ENE
RESURS DK-1 2.2 19:40:57 10° NNW 19:45:06 81° ENE 19:47:05 30° SSE
Cosmos 2322 Rocket 3.9 19:40:23 10° NW 19:45:23 34° WSW 19:50:23 10° SSW
Cosmos 468 4.4 19:40:22 10° S 19:45:31 67° ESE 19:50:43 10° NNE
Cosmos 1626 3.9 19:43:16 10° NNW 19:46:40 33° W 19:50:03 10° SSW
SL-24 R/B - RUBIN 2 3.5 19:43:15 10° NNW 19:48:09 77° ENE 19:49:57 36° SE
Cosmos 1821 Rocket 3.9 19:45:14 10° S 19:51:15 63° E 19:57:23 10° NNE
BREEZE-M DEB (TANK) 2.6 19:51:09 10° WSW 19:52:36 36° WNW 19:52:36 36° WNW
Cosmos 1000 Rocket 4.4 19:47:07 10° N 19:53:22 73° E 19:59:32 10° SSE
USA 267 3.2 19:49:38 22° NE 19:54:02 67° SE 20:00:31 10° SW
Cosmos 1452 Rocket 3.6 19:49:22 10° NNW 19:54:38 79° WSW 19:59:52 10° SSE
SL-8 R/B 3.6 19:50:03 10° WSW 19:54:53 86° NNW 19:56:27 43° ENE
Lacrosse 5 rocket 4.0 19:53:03 10° NW 19:55:00 13° NNW 19:56:54 10° N
SJ-6B 2.5 19:55:11 66° SE 19:55:34 74° ENE 19:59:19 10° N
Sich 1 4.3 19:55:46 10° N 19:58:06 27° NNE 19:58:06 27° NNE
Cosmos 2239 Rocket 4.3 19:54:12 10° S 20:00:18 74° E 20:06:26 10° N
Cosmos 1934 Rocket 4.0 19:54:31 10° SSE 20:00:41 57° E 20:06:55 10° NNE
Cosmos 1805 Rocket 3.4 19:57:52 10° N 20:02:14 69° E 20:02:32 66° ESE
Atlas Centaur 2 3.4 19:58:23 10° WSW 20:02:55 29° S 20:04:35 25° SSE
DELTA 2 R/B (1) 3.6 19:58:57 10° W 20:04:32 74° S 20:05:56 51° ESE
Cosmos 2322 3.8 19:59:13 10° NNW 20:04:57 76° WSW 20:09:19 18° SSE
ALOS 4.0 20:05:13 10° SSW 20:09:25 33° W 20:13:38 10° NNW
Gbstr 26 Del rocket 4.2 20:04:37 10° NW 20:09:37 43° NNE 20:10:30 40° NE
Spot 2 Rocket 4.2 20:11:22 37° NNE 20:11:22 37° NNE 20:14:54 10° N
BREEZE M DEB (TANK) 3.7 20:08:12 10° NW 20:10:26 23° NNW 20:10:26 23° NNW
CZ-4C R/B 2.3 20:08:02 10° SSW 20:12:18 50° SSE 20:12:18 50° SSE
Cosmos 2123 Rocket 3.9 20:13:18 10° N 20:19:31 67° E 20:20:47 54° SE
USA 234 3.8 20:28:01 40° NE 20:28:43 41° NNE 20:34:46 10° NW
Cosmos 2219 Rocket 2.5 20:24:41 10° NNW 20:29:16 52° NNE 20:29:16 52° NNE
Cosmos 1048 Rocket 4.4 20:30:43 10° SSW 20:35:46 59° WNW 20:38:42 25° N
Cosmos 2333 4.3 20:34:43 10° NNW 20:40:26 74° WSW 20:40:47 71° SW
Envisat 3.8 20:46:16 44° NNW 20:46:16 44° NNW 20:49:42 10° NNW
Resurs 01 Rocket 3.4 20:49:59 26° NNW 20:49:59 26° NNW 20:52:01 10° NNW
Cosmos 2237 Rocket 3.6 20:52:47 10° NNW 20:55:41 29° N 20:55:41 29° N
SL-16 R/B 4.4 21:01:34 10° N 21:02:43 15° N 21:02:43 15° N
COSMOS 2428 4.0 21:11:20 10° NW 21:16:20 34° WSW 21:16:20 34° WSW
Cosmos 2333 Rocket 3.5 21:14:38 10° NNW 21:18:02 36° NW 21:18:02 36° NW
USA 267 4.2 21:37:01 41° NW 21:37:01 41° NW 21:42:50 10° W
